This demonstration page uses our WeatherBlox Daily Observations layout. Learn more.

38.88101, -77.10428

Hourly Observations for June 20, 2017

Temp ( °F °C ) Dew Point ( °F °C ) Humidity (%) Winds ( mph kmh ) Pressure ( in mb ) Visibility ( mi km ) Precip ( " mm )
12:52 am 00:52 Cloudy 74 23.3 70 21.1 88 88 SSW 10 17 29.88 1012 10 16.09344 0 0
1:52 am 01:52 Mostly Clear 72 22.2 70 21.1 94 94 S 7 11 29.88 1012 10 16.09344 0.001 0.001
2:33 am 02:33 Partly Cloudy 72 22.2 70 21.1 94 94 WNW 7 11 29.94 1014 10 16.09344 0 0
2:52 am 02:52 Mostly Clear 72 22.2 70 21.1 94 94 WSW 6 9 29.91 1013 10 16.09344 0 0
3:52 am 03:52 Mostly Cloudy 72 22.2 70 21.1 94 94 SSW 5 7 29.91 1013 10 16.09344 0 0
4:52 am 04:52 Mostly Cloudy 71 21.7 69 20.6 94 94 S 3 6 29.91 1013 10 16.09344 0 0
5:52 am 05:52 Mostly Cloudy 70 21.1 69 20.6 97 97 SW 6 9 29.94 1014 10 16.09344 0 0
6:52 am 06:52 Mostly Cloudy 71 21.7 70 21.1 96 96 SW 6 9 29.94 1014 10 16.09344 0 0
7:52 am 07:52 Mostly Cloudy 74 23.3 68 20 82 82 SSW 8 13 29.97 1015 10 16.09344 0 0
8:52 am 08:52 Mostly Cloudy 77 25 65 18.3 66 66 WSW 6 9 29.97 1015 10 16.09344 0 0
9:52 am 09:52 Mostly Cloudy 80 26.7 61 16.1 52 52 WSW 7 11 29.97 1015 10 16.09344 0 0
10:52 am 10:52 Mostly Cloudy 82 27.8 61 16.1 49 49 W 8 13 30 1016 10 16.09344 0 0
11:52 am 11:52 Mostly Cloudy 84 28.9 60 15.6 44 44 W 9 15 29.97 1015 10 16.09344 0 0
12:52 pm 12:52 Mostly Cloudy 86 30 57 13.9 37 37 undefined N/A 29.97 1015 10 16.09344 0 0
1:52 pm 13:52 Mostly Cloudy 85 29.4 56 13.3 37 37 W 9 15 29.97 1015 10 16.09344 0 0
2:52 pm 14:52 Mostly Cloudy 87 30.6 56 13.3 35 35 SW 12 19 29.97 1015 10 16.09344 0 0
3:52 pm 15:52 Mostly Cloudy 87 30.6 56 13.3 35 35 W 10 17 29.94 1014 10 16.09344 0 0
4:20 pm 16:20 Mostly Cloudy 85 29.4 60 15.6 43 43 SSW 14 22 29.97 1015 10 16.09344 0 0
4:52 pm 16:52 Mostly Cloudy 85 29.4 64 17.8 50 50 S 17 28 29.94 1014 10 16.09344 0 0
5:52 pm 17:52 Mostly Cloudy 84 28.9 66 18.9 55 55 S 17 28 29.94 1014 10 16.09344 0 0
6:52 pm 18:52 Mostly Cloudy 83 28.3 64 17.8 53 53 SW 17 28 29.94 1014 10 16.09344 0 0
7:52 pm 19:52 Mostly Cloudy 82 27.8 65 18.3 56 56 SSW 13 20 29.97 1015 10 16.09344 0 0
8:52 pm 20:52 Mostly Cloudy 80 26.7 67 19.4 64 64 SSW 9 15 29.97 1015 10 16.09344 0 0
9:52 pm 21:52 Mostly Cloudy 78 25.6 69 20.6 74 74 S 10 17 29.97 1015 10 16.09344 0 0
10:52 pm 22:52 Mostly Cloudy 77 25 69 20.6 77 77 S 8 13 29.97 1015 10 16.09344 0 0
11:52 pm 23:52 Mostly Cloudy 77 25 67 19.4 71 71 SSW 10 17 30 1016 10 16.09344 0 0

Powered by AerisWeather